TIANMU-1 17

Last updated on Mon Jun 22 2026 00:02:46 GMT+0000 (Coordinated Universal Time)

1 58702U 24004C 26172.53002447 .00004662 00000+0 17987-3 0 9997 2 58702 97.4648 358.4398 0005070 359.4602 0.6630 15.26784809136435
UTC large
Height (km)
Speed (km/s)
/
Latitude / Longitude
Inclination (degrees)
Orbital Period (minutes)
Azimuth
Elevation
Range (km)
Doppler Factor

Next 0 passes for location: London (51.5072 / 0.1276)

No passes found over London.
TIANMU-1 17